ISS (ZARYA)

Last updated on Mon Sep 07 2026 00:02:06 GMT+0000 (Coordinated Universal Time)

1 25544U 98067A 26249.46623010 .00004151 00000+0 83451-4 0 9990 2 25544 51.6308 257.8166 0005025 113.2307 246.9211 15.49006161584352
UTC large
Height (km)
Speed (km/s)
/
Latitude / Longitude
Inclination (degrees)
Orbital Period (minutes)
Azimuth
Elevation
Range (km)
Doppler Factor

Next 0 passes for location: London (51.5072 / 0.1276)

No passes found over London.
ISS (ZARYA)